31.3°F
Current conditions from King Hill
Updated every 5 minutes
 
  Friday October 31, 2014

Station Historical Data
Daily Summary for March 2, 2012 Units:  English    Metric   Both
« Previous Day
Next Day »
Daily Weekly Monthly Yearly Custom
  High: Low: Average:
Temperature: 37.5 °F 26.5 °F 30.7 °F
Dew Point: 27.9 °F 19.4 °F 23.3 °F
Humidity: 78% 67% 74%
Wind Speed: 9.0mph 1.0mph 4.8mph
Wind Gust: 18.0mph - -
Wind- - SSW
Pressure: 30.00 in 29.69 in -
Precipitation: 0.00 in    
Historical Graphs
 
 
Tabular Data for March 2, 2012
Time Temperature Dew Point Pressure Wind Wind Speed Wind Gust Humidity Daily Rainfall
00:04 26.8 °F 20.3 °F 29.93 in SSW 1.0 mph 6.0 mph 76% 0.00 in
00:09 26.9 °F 20.4 °F 29.93 in Calm   4.0 mph 76% 0.00 in
00:14 27.0 °F 20.1 °F 29.93 in Calm   4.0 mph 75% 0.00 in
00:19 27.1 °F 20.2 °F 29.93 in SSW 2.0 mph 4.0 mph 75% 0.00 in
00:24 27.1 °F 20.2 °F 29.93 in SSW 3.0 mph 7.0 mph 75% 0.00 in
00:29 27.1 °F 19.9 °F 29.94 in SSW 1.0 mph 7.0 mph 74% 0.00 in
00:34 27.1 °F 19.9 °F 29.94 in SSW 2.0 mph 6.0 mph 74% 0.00 in
00:39 27.1 °F 19.9 °F 29.94 in SSW 2.0 mph 5.0 mph 74% 0.00 in
00:44 27.1 °F 19.9 °F 29.94 in SSW 2.0 mph 6.0 mph 74% 0.00 in
00:49 27.1 °F 19.9 °F 29.94 in Calm   6.0 mph 74% 0.00 in
00:54 27.1 °F 19.9 °F 29.94 in SSW 1.0 mph 5.0 mph 74% 0.00 in
00:59 27.0 °F 19.8 °F 29.94 in SSW 2.0 mph 6.0 mph 74% 0.00 in
01:04 27.1 °F 19.6 °F 29.94 in SSW 2.0 mph 6.0 mph 73% 0.00 in
01:09 27.2 °F 19.4 °F 29.95 in SSW 4.0 mph 7.0 mph 72% 0.00 in
01:14 27.2 °F 19.7 °F 29.94 in SSW 2.0 mph 7.0 mph 73% 0.00 in
01:19 27.2 °F 19.7 °F 29.95 in SSW 3.0 mph 7.0 mph 73% 0.00 in
01:24 27.2 °F 19.7 °F 29.95 in SSW 1.0 mph 7.0 mph 73% 0.00 in
01:29 27.1 °F 19.6 °F 29.95 in SSW 2.0 mph 5.0 mph 73% 0.00 in
01:34 27.2 °F 19.4 °F 29.95 in SSW 2.0 mph 5.0 mph 72% 0.00 in
01:39 27.1 °F 19.6 °F 29.95 in SSW 2.0 mph 6.0 mph 73% 0.00 in
01:44 27.1 °F 19.6 °F 29.95 in SSW 2.0 mph 6.0 mph 73% 0.00 in
01:49 26.9 °F 19.7 °F 29.95 in SSW 1.0 mph 6.0 mph 74% 0.00 in
01:54 26.7 °F 19.8 °F 29.95 in SSW 2.0 mph 6.0 mph 75% 0.00 in
01:59 26.6 °F 19.7 °F 29.95 in SSW 1.0 mph 6.0 mph 75% 0.00 in
02:04 26.6 °F 19.7 °F 29.95 in SSW 2.0 mph 6.0 mph 75% 0.00 in
02:09 26.6 °F 19.7 °F 29.95 in SSW 2.0 mph 6.0 mph 75% 0.00 in
02:14 26.7 °F 19.8 °F 29.95 in SSW 3.0 mph 6.0 mph 75% 0.00 in
02:19 26.7 °F 19.8 °F 29.95 in SSW 2.0 mph 6.0 mph 75% 0.00 in
02:24 26.7 °F 19.8 °F 29.96 in SSW 2.0 mph 6.0 mph 75% 0.00 in
02:29 26.6 °F 20.1 °F 29.96 in SSW 2.0 mph 5.0 mph 76% 0.00 in
02:34 26.5 °F 20.0 °F 29.96 in SSW 1.0 mph 5.0 mph 76% 0.00 in
02:39 26.6 °F 19.7 °F 29.96 in SSW 3.0 mph 7.0 mph 75% 0.00 in
02:44 26.8 °F 19.6 °F 29.96 in SSW 4.0 mph 7.0 mph 74% 0.00 in
02:49 26.9 °F 19.7 °F 29.96 in SSW 3.0 mph 7.0 mph 74% 0.00 in
02:54 27.0 °F 19.8 °F 29.96 in SSW 4.0 mph 9.0 mph 74% 0.00 in
02:59 27.1 °F 19.9 °F 29.96 in South 6.0 mph 9.0 mph 74% 0.00 in
03:04 27.1 °F 19.9 °F 29.96 in South 4.0 mph 9.0 mph 74% 0.00 in
03:09 27.1 °F 19.9 °F 29.97 in South 3.0 mph 7.0 mph 74% 0.00 in
03:14 27.1 °F 19.9 °F 29.97 in South 3.0 mph 6.0 mph 74% 0.00 in
03:19 27.2 °F 20.0 °F 29.96 in SSW 5.0 mph 8.0 mph 74% 0.00 in
03:24 27.2 °F 20.0 °F 29.96 in South 5.0 mph 9.0 mph 74% 0.00 in
03:29 27.2 °F 20.0 °F 29.96 in SSW 2.0 mph 9.0 mph 74% 0.00 in
03:34 27.3 °F 20.1 °F 29.97 in SSW 4.0 mph 8.0 mph 74% 0.00 in
03:39 27.3 °F 20.1 °F 29.97 in SSW 5.0 mph 8.0 mph 74% 0.00 in
03:44 27.3 °F 20.1 °F 29.97 in SSW 5.0 mph 8.0 mph 74% 0.00 in
03:49 27.4 °F 20.2 °F 29.97 in SSW 6.0 mph 11.0 mph 74% 0.00 in
03:54 27.4 °F 20.5 °F 29.97 in SSW 5.0 mph 11.0 mph 75% 0.00 in
03:59 27.4 °F 20.5 °F 29.97 in SSW 4.0 mph 11.0 mph 75% 0.00 in
04:04 27.4 °F 20.5 °F 29.97 in SSW 5.0 mph 13.0 mph 75% 0.00 in
04:09 27.4 °F 20.8 °F 29.97 in SSW 6.0 mph 13.0 mph 76% 0.00 in
04:14 27.5 °F 20.9 °F 29.97 in South 5.0 mph 10.0 mph 76% 0.00 in
04:19 27.4 °F 20.8 °F 29.97 in South 5.0 mph 10.0 mph 76% 0.00 in
04:24 27.5 °F 21.2 °F 29.97 in South 5.0 mph 14.0 mph 77% 0.00 in
04:34 27.5 °F 21.2 °F 29.97 in South 4.0 mph 10.0 mph 77% 0.00 in
04:44 27.6 °F 21.3 °F 29.97 in South 5.0 mph 10.0 mph 77% 0.00 in
04:49 27.6 °F 21.3 °F 29.97 in SSW 4.0 mph 9.0 mph 77% 0.00 in
04:54 27.6 °F 21.6 °F 29.97 in SSW 3.0 mph 9.0 mph 78% 0.00 in
04:59 27.6 °F 21.3 °F 29.97 in SSW 4.0 mph 9.0 mph 77% 0.00 in
05:04 27.6 °F 21.6 °F 29.97 in SSW 4.0 mph 7.0 mph 78% 0.00 in
05:09 27.6 °F 21.6 °F 29.97 in SSW 4.0 mph 7.0 mph 78% 0.00 in
05:14 27.6 °F 21.6 °F 29.97 in SSW 2.0 mph 8.0 mph 78% 0.00 in
05:19 27.6 °F 21.6 °F 29.97 in South 5.0 mph 8.0 mph 78% 0.00 in
05:24 27.6 °F 21.6 °F 29.97 in SSW 2.0 mph 10.0 mph 78% 0.00 in
05:34 27.6 °F 21.6 °F 29.97 in SSW 2.0 mph 7.0 mph 78% 0.00 in
05:39 27.6 °F 21.6 °F 29.97 in SSW 4.0 mph 9.0 mph 78% 0.00 in
05:44 27.6 °F 21.6 °F 29.97 in SSW 4.0 mph 9.0 mph 78% 0.00 in
05:49 27.7 °F 21.7 °F 29.97 in SSW 5.0 mph 8.0 mph 78% 0.00 in
05:54 27.7 °F 21.7 °F 29.97 in SSW 4.0 mph 8.0 mph 78% 0.00 in
05:59 27.7 °F 21.4 °F 29.97 in SSW 4.0 mph 8.0 mph 77% 0.00 in
06:04 27.8 °F 21.5 °F 29.97 in SSW 5.0 mph 8.0 mph 77% 0.00 in
06:09 27.8 °F 21.5 °F 29.97 in SSW 5.0 mph 10.0 mph 77% 0.00 in
06:14 27.8 °F 21.5 °F 29.97 in SW 4.0 mph 10.0 mph 77% 0.00 in
06:19 27.8 °F 21.5 °F 29.98 in SSW 3.0 mph 10.0 mph 77% 0.00 in
06:24 27.9 °F 21.6 °F 29.98 in SSW 5.0 mph 10.0 mph 77% 0.00 in
06:29 27.9 °F 21.6 °F 29.98 in SSW 3.0 mph 10.0 mph 77% 0.00 in
06:34 27.9 °F 21.6 °F 29.98 in SSW 6.0 mph 8.0 mph 77% 0.00 in
06:39 27.9 °F 21.3 °F 29.98 in SSW 5.0 mph 11.0 mph 76% 0.00 in
06:44 28.0 °F 21.4 °F 29.98 in SSW 7.0 mph 13.0 mph 76% 0.00 in
06:49 28.0 °F 21.4 °F 29.98 in SSW 6.0 mph 13.0 mph 76% 0.00 in
06:54 28.0 °F 21.4 °F 29.98 in SSW 5.0 mph 11.0 mph 76% 0.00 in
06:59 27.9 °F 21.3 °F 29.98 in SSW 5.0 mph 10.0 mph 76% 0.00 in
07:04 27.9 °F 21.3 °F 29.98 in SSW 4.0 mph 11.0 mph 76% 0.00 in
07:09 27.9 °F 21.3 °F 29.98 in SSW 5.0 mph 11.0 mph 76% 0.00 in
07:14 27.9 °F 21.3 °F 29.98 in SSW 6.0 mph 11.0 mph 76% 0.00 in
07:19 27.9 °F 21.3 °F 29.99 in SSW 6.0 mph 11.0 mph 76% 0.00 in
07:24 27.8 °F 21.2 °F 29.98 in SSW 8.0 mph 12.0 mph 76% 0.00 in
07:29 27.9 °F 21.3 °F 29.99 in SSW 6.0 mph 12.0 mph 76% 0.00 in
07:34 27.9 °F 21.3 °F 29.99 in SSW 4.0 mph 11.0 mph 76% 0.00 in
07:39 27.9 °F 21.3 °F 29.99 in SSW 6.0 mph 12.0 mph 76% 0.00 in
07:44 27.9 °F 21.3 °F 29.99 in SSW 6.0 mph 12.0 mph 76% 0.00 in
07:49 28.0 °F 21.4 °F 29.99 in South 6.0 mph 11.0 mph 76% 0.00 in
07:54 28.1 °F 21.2 °F 29.99 in SSW 7.0 mph 12.0 mph 75% 0.00 in
07:59 28.1 °F 21.2 °F 29.99 in SSW 6.0 mph 13.0 mph 75% 0.00 in
08:04 28.1 °F 21.2 °F 29.99 in SSW 6.0 mph 13.0 mph 75% 0.00 in
08:09 28.1 °F 21.2 °F 29.99 in SSW 6.0 mph 12.0 mph 75% 0.00 in
08:14 28.2 °F 21.3 °F 29.99 in SSW 6.0 mph 14.0 mph 75% 0.00 in
08:19 28.2 °F 21.3 °F 29.99 in SSW 6.0 mph 14.0 mph 75% 0.00 in
08:24 28.3 °F 21.4 °F 29.99 in SSW 7.0 mph 11.0 mph 75% 0.00 in
08:29 28.3 °F 21.4 °F 30.00 in SSW 7.0 mph 12.0 mph 75% 0.00 in
08:34 28.3 °F 21.4 °F 30.00 in SSW 6.0 mph 13.0 mph 75% 0.00 in
08:39 28.4 °F 21.5 °F 29.99 in SSW 6.0 mph 13.0 mph 75% 0.00 in
08:44 28.4 °F 21.5 °F 30.00 in SSW 5.0 mph 13.0 mph 75% 0.00 in
08:49 28.4 °F 21.5 °F 29.99 in SSW 5.0 mph 13.0 mph 75% 0.00 in
08:54 28.4 °F 21.5 °F 29.99 in SSW 6.0 mph 14.0 mph 75% 0.00 in
08:59 28.5 °F 21.6 °F 29.99 in SSW 6.0 mph 14.0 mph 75% 0.00 in
09:04 28.5 °F 21.6 °F 29.99 in SSW 7.0 mph 12.0 mph 75% 0.00 in
09:09 28.5 °F 21.3 °F 29.99 in SSW 6.0 mph 12.0 mph 74% 0.00 in
09:14 28.5 °F 21.3 °F 29.99 in SSW 7.0 mph 13.0 mph 74% 0.00 in
09:19 28.6 °F 21.4 °F 29.99 in SSW 7.0 mph 13.0 mph 74% 0.00 in
09:24 28.6 °F 21.4 °F 29.99 in SSW 7.0 mph 12.0 mph 74% 0.00 in
09:34 28.7 °F 21.5 °F 29.99 in SSW 7.0 mph 13.0 mph 74% 0.00 in
09:39 28.8 °F 21.6 °F 29.99 in SSW 7.0 mph 13.0 mph 74% 0.00 in
09:44 28.8 °F 21.6 °F 29.99 in SSW 8.0 mph 14.0 mph 74% 0.00 in
09:54 28.9 °F 21.7 °F 29.99 in SSW 6.0 mph 12.0 mph 74% 0.00 in
09:59 29.1 °F 21.9 °F 29.99 in SSW 6.0 mph 12.0 mph 74% 0.00 in
10:04 29.2 °F 21.9 °F 29.99 in SSW 6.0 mph 13.0 mph 74% 0.00 in
10:09 29.2 °F 21.9 °F 29.99 in SSW 9.0 mph 17.0 mph 74% 0.00 in
10:14 29.3 °F 22.0 °F 29.99 in SSW 7.0 mph 17.0 mph 74% 0.00 in
10:19 29.4 °F 22.1 °F 30.00 in SSW 7.0 mph 14.0 mph 74% 0.00 in
10:24 29.5 °F 22.2 °F 29.99 in SSW 7.0 mph 15.0 mph 74% 0.00 in
10:29 29.6 °F 22.3 °F 29.99 in SSW 7.0 mph 15.0 mph 74% 0.00 in
10:40 29.8 °F 22.8 °F 29.99 in SSW 5.0 mph 14.0 mph 75% 0.00 in
10:49 29.9 °F 22.9 °F 29.99 in SSW 7.0 mph 14.0 mph 75% 0.00 in
10:54 30.0 °F 23.0 °F 29.99 in SSW 7.0 mph 14.0 mph 75% 0.00 in
10:59 30.1 °F 23.1 °F 29.99 in SW 9.0 mph 14.0 mph 75% 0.00 in
11:04 30.2 °F 23.2 °F 29.99 in SSW 7.0 mph 13.0 mph 75% 0.00 in
11:09 30.3 °F 23.3 °F 29.99 in SSW 6.0 mph 13.0 mph 75% 0.00 in
11:14 30.5 °F 23.5 °F 29.99 in SSW 6.0 mph 14.0 mph 75% 0.00 in
11:19 30.7 °F 23.4 °F 29.99 in SSW 7.0 mph 14.0 mph 74% 0.00 in
11:25 30.9 °F 23.6 °F 30.00 in SW 6.0 mph 13.0 mph 74% 0.00 in
11:34 31.4 °F 24.1 °F 29.99 in SSW 8.0 mph 16.0 mph 74% 0.00 in
11:39 31.9 °F 24.2 °F 29.99 in SSW 6.0 mph 15.0 mph 73% 0.00 in
11:44 32.2 °F 24.5 °F 29.99 in SSW 5.0 mph 12.0 mph 73% 0.00 in
11:49 32.6 °F 24.6 °F 29.99 in SW 7.0 mph 13.0 mph 72% 0.00 in
11:54 32.6 °F 24.6 °F 29.99 in SSW 8.0 mph 13.0 mph 72% 0.00 in
11:59 32.6 °F 24.6 °F 29.99 in SSW 6.0 mph 13.0 mph 72% 0.00 in
12:04 33.0 °F 25.0 °F 29.99 in SSW 5.0 mph 12.0 mph 72% 0.00 in
12:09 33.2 °F 25.2 °F 29.98 in SW 5.0 mph 11.0 mph 72% 0.00 in
12:14 33.4 °F 25.3 °F 29.98 in SSW 6.0 mph 11.0 mph 72% 0.00 in
12:19 33.8 °F 25.4 °F 29.98 in South 5.0 mph 11.0 mph 71% 0.00 in
12:24 34.2 °F 25.4 °F 29.98 in South 6.0 mph 12.0 mph 70% 0.00 in
12:29 34.2 °F 25.4 °F 29.98 in South 5.0 mph 12.0 mph 70% 0.00 in
12:34 34.4 °F 25.6 °F 29.98 in SSW 3.0 mph 9.0 mph 70% 0.00 in
12:39 34.9 °F 26.1 °F 29.98 in Calm   6.0 mph 70% 0.00 in
12:44 35.2 °F 26.1 °F 29.98 in SW 4.0 mph 8.0 mph 69% 0.00 in
12:49 34.8 °F 25.7 °F 29.97 in SW 7.0 mph 10.0 mph 69% 0.00 in
12:54 34.8 °F 26.0 °F 29.97 in SSW 6.0 mph 12.0 mph 70% 0.00 in
12:59 35.0 °F 26.2 °F 29.97 in SSW 5.0 mph 13.0 mph 70% 0.00 in
13:04 35.4 °F 26.6 °F 29.97 in SSW 6.0 mph 13.0 mph 70% 0.00 in
13:09 36.0 °F 26.8 °F 29.97 in SW 6.0 mph 12.0 mph 69% 0.00 in
13:14 36.7 °F 27.1 °F 29.97 in SSW 5.0 mph 12.0 mph 68% 0.00 in
13:19 37.3 °F 27.4 °F 29.96 in SSW 4.0 mph 11.0 mph 67% 0.00 in
13:24 36.7 °F 26.8 °F 29.96 in SSW 5.0 mph 11.0 mph 67% 0.00 in
13:29 36.1 °F 26.6 °F 29.96 in SW 5.0 mph 11.0 mph 68% 0.00 in
13:34 36.0 °F 26.5 °F 29.96 in South 6.0 mph 11.0 mph 68% 0.00 in
13:39 35.7 °F 26.5 °F 29.96 in SW 7.0 mph 11.0 mph 69% 0.00 in
13:44 35.5 °F 26.3 °F 29.96 in SSW 4.0 mph 12.0 mph 69% 0.00 in
13:54 35.3 °F 26.5 °F 29.95 in SSW 7.0 mph 13.0 mph 70% 0.00 in
13:59 35.2 °F 26.4 °F 29.95 in SSW 7.0 mph 15.0 mph 70% 0.00 in
14:04 35.5 °F 26.7 °F 29.95 in South 5.0 mph 15.0 mph 70% 0.00 in
14:09 35.7 °F 26.9 °F 29.94 in South 8.0 mph 13.0 mph 70% 0.00 in
14:14 35.9 °F 27.1 °F 29.94 in SSW 7.0 mph 15.0 mph 70% 0.00 in
14:19 35.7 °F 26.9 °F 29.94 in South 6.0 mph 15.0 mph 70% 0.00 in
14:24 35.2 °F 26.7 °F 29.94 in South 8.0 mph 16.0 mph 71% 0.00 in
14:29 35.3 °F 26.8 °F 29.93 in SSW 6.0 mph 16.0 mph 71% 0.00 in
14:39 35.6 °F 26.8 °F 29.93 in South 6.0 mph 16.0 mph 70% 0.00 in
14:44 35.4 °F 26.9 °F 29.93 in South 7.0 mph 13.0 mph 71% 0.00 in
14:49 35.4 °F 26.9 °F 29.93 in South 6.0 mph 13.0 mph 71% 0.00 in
14:54 35.5 °F 27.0 °F 29.93 in South 6.0 mph 16.0 mph 71% 0.00 in
14:59 36.1 °F 27.3 °F 29.93 in South 6.0 mph 16.0 mph 70% 0.00 in
15:04 36.0 °F 27.2 °F 29.93 in SSW 7.0 mph 17.0 mph 70% 0.00 in
15:09 35.9 °F 27.1 °F 29.93 in SSW 4.0 mph 17.0 mph 70% 0.00 in
15:14 35.9 °F 27.1 °F 29.92 in SSW 6.0 mph 12.0 mph 70% 0.00 in
15:19 36.0 °F 27.2 °F 29.92 in SSW 4.0 mph 12.0 mph 70% 0.00 in
15:24 36.4 °F 27.6 °F 29.92 in SSW 5.0 mph 13.0 mph 70% 0.00 in
15:29 36.9 °F 27.7 °F 29.92 in SSW 5.0 mph 13.0 mph 69% 0.00 in
15:34 37.5 °F 27.9 °F 29.91 in SSW 5.0 mph 10.0 mph 68% 0.00 in
15:39 37.3 °F 27.4 °F 29.92 in SSW 7.0 mph 12.0 mph 67% 0.00 in
15:44 37.5 °F 27.9 °F 29.92 in SSW 4.0 mph 12.0 mph 68% 0.00 in
15:49 37.4 °F 27.4 °F 29.91 in SSW 5.0 mph 11.0 mph 67% 0.00 in
15:54 36.6 °F 27.0 °F 29.92 in SW 5.0 mph 9.0 mph 68% 0.00 in
15:59 36.0 °F 26.8 °F 29.92 in SSW 4.0 mph 11.0 mph 69% 0.00 in
16:04 35.9 °F 26.7 °F 29.92 in SW 6.0 mph 11.0 mph 69% 0.00 in
16:09 36.2 °F 27.0 °F 29.92 in SW 6.0 mph 11.0 mph 69% 0.00 in
16:14 36.5 °F 26.9 °F 29.92 in SSW 6.0 mph 10.0 mph 68% 0.00 in
16:19 36.3 °F 26.8 °F 29.92 in SSW 3.0 mph 10.0 mph 68% 0.00 in
16:24 36.1 °F 26.6 °F 29.91 in SW 3.0 mph 8.0 mph 68% 0.00 in
16:29 35.6 °F 26.4 °F 29.91 in SW 3.0 mph 8.0 mph 69% 0.00 in
16:39 35.3 °F 26.5 °F 29.91 in SSW 5.0 mph 10.0 mph 70% 0.00 in
16:44 35.2 °F 26.7 °F 29.92 in SSW 2.0 mph 10.0 mph 71% 0.00 in
16:54 35.1 °F 26.6 °F 29.92 in SSW 3.0 mph 7.0 mph 71% 0.00 in
16:59 35.0 °F 26.6 °F 29.91 in SSW 3.0 mph 7.0 mph 71% 0.00 in
17:04 34.9 °F 26.1 °F 29.91 in SSW 5.0 mph 9.0 mph 70% 0.00 in
17:09 34.6 °F 25.8 °F 29.91 in South 4.0 mph 9.0 mph 70% 0.00 in
17:14 34.4 °F 25.6 °F 29.92 in SSW 3.0 mph 8.0 mph 70% 0.00 in
17:19 33.9 °F 25.5 °F 29.91 in SSW 3.0 mph 7.0 mph 71% 0.00 in
17:24 33.6 °F 25.2 °F 29.91 in SSW 2.0 mph 7.0 mph 71% 0.00 in
17:29 33.3 °F 25.3 °F 29.91 in SSW 3.0 mph 7.0 mph 72% 0.00 in
17:34 33.0 °F 25.0 °F 29.91 in SW 3.0 mph 9.0 mph 72% 0.00 in
17:39 32.8 °F 24.8 °F 29.91 in SSW 3.0 mph 9.0 mph 72% 0.00 in
17:44 32.6 °F 24.6 °F 29.91 in SSW 3.0 mph 8.0 mph 72% 0.00 in
17:49 32.5 °F 24.5 °F 29.90 in SSW 4.0 mph 7.0 mph 72% 0.00 in
17:54 32.5 °F 24.5 °F 29.90 in South 4.0 mph 8.0 mph 72% 0.00 in
17:59 32.5 °F 24.5 °F 29.90 in SSW 4.0 mph 8.0 mph 72% 0.00 in
18:04 32.4 °F 24.4 °F 29.90 in SSW 4.0 mph 9.0 mph 72% 0.00 in
18:09 32.4 °F 24.4 °F 29.90 in SSW 2.0 mph 9.0 mph 72% 0.00 in
18:14 32.3 °F 24.3 °F 29.90 in South 2.0 mph 8.0 mph 72% 0.00 in
18:19 32.2 °F 24.2 °F 29.90 in SSE 2.0 mph 10.0 mph 72% 0.00 in
18:24 32.1 °F 24.1 °F 29.89 in South 4.0 mph 13.0 mph 72% 0.00 in
18:29 32.0 °F 24.0 °F 29.90 in SSW 6.0 mph 13.0 mph 72% 0.00 in
18:34 31.9 °F 23.9 °F 29.90 in SSW 4.0 mph 11.0 mph 72% 0.00 in
18:39 31.9 °F 24.2 °F 29.89 in SSW 4.0 mph 11.0 mph 73% 0.00 in
18:44 31.8 °F 24.1 °F 29.89 in South 5.0 mph 10.0 mph 73% 0.00 in
18:49 31.7 °F 24.0 °F 29.88 in South 5.0 mph 12.0 mph 73% 0.00 in
18:59 31.7 °F 24.0 °F 29.88 in South 4.0 mph 12.0 mph 73% 0.00 in
19:04 31.6 °F 23.9 °F 29.88 in SSW 5.0 mph 10.0 mph 73% 0.00 in
19:09 31.6 °F 23.9 °F 29.87 in South 6.0 mph 10.0 mph 73% 0.00 in
19:14 31.6 °F 23.9 °F 29.87 in South 4.0 mph 10.0 mph 73% 0.00 in
19:19 31.6 °F 23.9 °F 29.87 in SSE 3.0 mph 9.0 mph 73% 0.00 in
19:24 31.7 °F 24.0 °F 29.87 in SSW 4.0 mph 10.0 mph 73% 0.00 in
19:29 31.8 °F 24.1 °F 29.87 in SSW 4.0 mph 10.0 mph 73% 0.00 in
19:34 31.8 °F 24.5 °F 29.88 in South 5.0 mph 10.0 mph 74% 0.00 in
19:39 31.8 °F 24.1 °F 29.88 in South 5.0 mph 10.0 mph 73% 0.00 in
19:44 31.8 °F 24.1 °F 29.87 in South 7.0 mph 14.0 mph 73% 0.00 in
19:54 31.6 °F 24.3 °F 29.87 in South 8.0 mph 17.0 mph 74% 0.00 in
19:59 31.5 °F 24.2 °F 29.87 in South 3.0 mph 16.0 mph 74% 0.00 in
20:04 31.5 °F 24.2 °F 29.87 in South 4.0 mph 14.0 mph 74% 0.00 in
20:09 31.4 °F 24.1 °F 29.88 in South 5.0 mph 14.0 mph 74% 0.00 in
20:14 31.3 °F 24.3 °F 29.87 in South 4.0 mph 14.0 mph 75% 0.00 in
20:19 31.2 °F 24.2 °F 29.87 in South 5.0 mph 13.0 mph 75% 0.00 in
20:24 31.1 °F 24.1 °F 29.87 in South 6.0 mph 14.0 mph 75% 0.00 in
20:29 31.0 °F 24.3 °F 29.87 in South 4.0 mph 14.0 mph 76% 0.00 in
20:34 30.9 °F 24.2 °F 29.87 in South 5.0 mph 13.0 mph 76% 0.00 in
20:39 30.8 °F 24.1 °F 29.86 in SSE 3.0 mph 13.0 mph 76% 0.00 in
20:44 30.8 °F 24.1 °F 29.86 in SSE 7.0 mph 12.0 mph 76% 0.00 in
20:49 30.8 °F 24.1 °F 29.85 in SSE 5.0 mph 15.0 mph 76% 0.00 in
20:54 30.7 °F 24.0 °F 29.85 in South 3.0 mph 15.0 mph 76% 0.00 in
20:59 30.7 °F 24.0 °F 29.85 in South 6.0 mph 13.0 mph 76% 0.00 in
21:04 30.7 °F 24.0 °F 29.84 in South 5.0 mph 13.0 mph 76% 0.00 in
21:09 30.8 °F 24.1 °F 29.84 in South 2.0 mph 11.0 mph 76% 0.00 in
21:14 30.8 °F 24.1 °F 29.84 in South 5.0 mph 9.0 mph 76% 0.00 in
21:19 30.9 °F 24.2 °F 29.83 in SSE 1.0 mph 9.0 mph 76% 0.00 in
21:24 30.9 °F 24.2 °F 29.83 in SSE 3.0 mph 9.0 mph 76% 0.00 in
21:29 31.0 °F 24.3 °F 29.82 in South 3.0 mph 9.0 mph 76% 0.00 in
21:34 31.0 °F 24.3 °F 29.82 in South 4.0 mph 9.0 mph 76% 0.00 in
21:39 31.1 °F 24.4 °F 29.81 in South 4.0 mph 10.0 mph 76% 0.00 in
21:49 31.2 °F 24.5 °F 29.81 in SSE 5.0 mph 13.0 mph 76% 0.00 in
21:54 31.2 °F 24.5 °F 29.80 in South 6.0 mph 11.0 mph 76% 0.00 in
21:59 31.3 °F 24.6 °F 29.80 in South 6.0 mph 11.0 mph 76% 0.00 in
22:04 31.4 °F 24.7 °F 29.79 in South 4.0 mph 11.0 mph 76% 0.00 in
22:09 31.4 °F 24.7 °F 29.79 in Calm   10.0 mph 76% 0.00 in
22:14 31.5 °F 24.8 °F 29.79 in South 5.0 mph 11.0 mph 76% 0.00 in
22:19 31.6 °F 24.9 °F 29.78 in South 6.0 mph 16.0 mph 76% 0.00 in
22:24 31.7 °F 25.0 °F 29.78 in South 5.0 mph 16.0 mph 76% 0.00 in
22:29 31.7 °F 24.7 °F 29.78 in South 7.0 mph 13.0 mph 75% 0.00 in
22:34 31.8 °F 24.8 °F 29.79 in SSW 5.0 mph 13.0 mph 75% 0.00 in
22:39 31.7 °F 24.7 °F 29.78 in South 6.0 mph 12.0 mph 75% 0.00 in
22:44 31.7 °F 24.7 °F 29.78 in South 7.0 mph 11.0 mph 75% 0.00 in
22:49 31.6 °F 24.6 °F 29.77 in South 5.0 mph 11.0 mph 75% 0.00 in
22:54 31.5 °F 24.5 °F 29.77 in SSE 2.0 mph 10.0 mph 75% 0.00 in
22:59 31.5 °F 24.8 °F 29.76 in SSW 3.0 mph 9.0 mph 76% 0.00 in
23:04 31.4 °F 24.7 °F 29.76 in South 4.0 mph 9.0 mph 76% 0.00 in
23:09 31.4 °F 24.7 °F 29.75 in South 6.0 mph 14.0 mph 76% 0.00 in
23:14 31.4 °F 24.7 °F 29.75 in South 7.0 mph 14.0 mph 76% 0.00 in
23:19 31.5 °F 24.8 °F 29.73 in South 8.0 mph 16.0 mph 76% 0.00 in
23:29 31.6 °F 24.9 °F 29.72 in SSW 7.0 mph 18.0 mph 76% 0.00 in
23:34 31.6 °F 25.2 °F 29.71 in South 7.0 mph 18.0 mph 77% 0.00 in
23:39 31.6 °F 25.2 °F 29.70 in South 6.0 mph 18.0 mph 77% 0.00 in
23:44 31.7 °F 25.0 °F 29.70 in South 8.0 mph 18.0 mph 76% 0.00 in
23:49 31.8 °F 25.1 °F 29.70 in South 7.0 mph 16.0 mph 76% 0.00 in
23:54 31.8 °F 25.1 °F 29.69 in South 7.0 mph 15.0 mph 76% 0.00 in
23:59 31.8 °F 25.1 °F 29.69 in SSW 5.0 mph 15.0 mph 76% 0.00 in
Westford Weather
Compliments of Weather Underground

 
 
Current Radar Loop:

Copyright © WestfordWeather.net 2007-2014. All rights reserved.